When you browse on this site, cookies collect data to enhance your experience and personalize the content and advertising you see.
Visit our Privacy Policy to learn more. By continuing to use the site, you agree to this use of cookies and data.
  • In Norway
  • List of Countries
  • For 7 days
  • Water Temperature
  • Satellite Maps
  • Weather Map
  • Weather Widgets
  • user-avatar
    Login

    Hourly Weather Karak

    Today, 24 March, Sunday

    Time Temperature Precipitation Wind Pressure Humidity
    00:00 +14°C° 0.2 mm 1 mps 674 mmHg 42%
    01:00 +14°C° 0.2 mm 1 mps 674 mmHg 44%
    02:00 +14°C° 0.2 mm 1 mps 673 mmHg 46%
    03:00 +13°C° 0 mm 1 mps 672 mmHg 47%
    04:00 +13°C° 0 mm 1 mps 672 mmHg 49%
    05:00 +12°C° 0 mm 1 mps 671 mmHg 51%
    06:00 +13°C° 0 mm 2 mps 672 mmHg 50%
    07:00 +14°C° 0 mm 2 mps 672 mmHg 49%
    08:00 +14°C° 0 mm 3 mps 672 mmHg 48%
    09:00 +14°C° 0 mm 4 mps 672 mmHg 47%
    10:00 +15°C° 0 mm 5 mps 672 mmHg 46%
    11:00 +15°C° 0 mm 6 mps 672 mmHg 44%
    12:00 +15°C° 0 mm 6 mps 672 mmHg 42%
    13:00 +14°C° 0 mm 6 mps 672 mmHg 40%
    14:00 +14°C° 0 mm 7 mps 672 mmHg 38%
    15:00 +14°C° 0 mm 7 mps 672 mmHg 38%
    16:00 +12°C° 0 mm 7 mps 672 mmHg 38%
    17:00 +12°C° 0 mm 7 mps 672 mmHg 39%
    18:00 +11°C° 0 mm 6 mps 672 mmHg 41%
    19:00 +11°C° 0 mm 6 mps 672 mmHg 44%
    20:00 +10°C° 0 mm 5 mps 672 mmHg 46%
    21:00 +10°C° 0 mm 5 mps 672 mmHg 48%
    22:00 +9°C° 0 mm 5 mps 672 mmHg 49%
    23:00 +10°C° 0 mm 4 mps 672 mmHg 51%

    Tomorrow, 25 March, Monday

    Time Temperature Precipitation Wind Pressure Humidity
    00:00 +8°C° 0 mm 4 mps 671 mmHg 52%
    01:00 +8°C° 0 mm 4 mps 671 mmHg 53%
    02:00 +7°C° 0 mm 4 mps 671 mmHg 54%
    03:00 +7°C° 0 mm 4 mps 671 mmHg 57%
    04:00 +6°C° 0 mm 4 mps 670 mmHg 60%
    05:00 +6°C° 0 mm 4 mps 670 mmHg 63%
    06:00 +6°C° 0 mm 5 mps 671 mmHg 62%
    07:00 +5°C° 0 mm 6 mps 671 mmHg 61%
    08:00 +6°C° 0 mm 7 mps 671 mmHg 60%
    09:00 +6°C° 0 mm 7 mps 672 mmHg 57%
    10:00 +8°C° 0 mm 7 mps 672 mmHg 54%
    11:00 +9°C° 0 mm 8 mps 672 mmHg 51%
    12:00 +7°C° 0.3 mm 8 mps 672 mmHg 54%
    13:00 +8°C° 0.3 mm 7 mps 672 mmHg 57%
    14:00 +6°C° 0.3 mm 7 mps 672 mmHg 61%
    15:00 +6°C° 0 mm 7 mps 673 mmHg 59%
    16:00 +6°C° 0 mm 7 mps 673 mmHg 57%
    17:00 +7°C° 0 mm 6 mps 673 mmHg 56%
    18:00 +7°C° 0 mm 6 mps 674 mmHg 57%
    19:00 +5°C° 0 mm 6 mps 675 mmHg 59%
    20:00 +6°C° 0 mm 5 mps 675 mmHg 60%
    21:00 +6°C° 0 mm 5 mps 675 mmHg 61%
    22:00 +5°C° 0 mm 4 mps 676 mmHg 62%
    23:00 +5°C° 0 mm 4 mps 676 mmHg 63%

    Day after tomorrow, 26 March, Tuesday

    Time Temperature Precipitation Wind Pressure Humidity
    00:00 +5°C° 0 mm 3 mps 676 mmHg 63%
    01:00 +4°C° 0 mm 3 mps 676 mmHg 63%
    02:00 +5°C° 0 mm 2 mps 676 mmHg 64%
    03:00 +5°C° 0 mm 2 mps 676 mmHg 62%
    04:00 +5°C° 0 mm 2 mps 676 mmHg 60%
    05:00 +4°C° 0 mm 2 mps 676 mmHg 58%
    06:00 +5°C° 0 mm 2 mps 677 mmHg 54%
    07:00 +5°C° 0 mm 3 mps 678 mmHg 50%
    08:00 +7°C° 0 mm 3 mps 678 mmHg 45%
    09:00 +7°C° 0 mm 4 mps 679 mmHg 43%
    10:00 +10°C° 0 mm 4 mps 679 mmHg 42%
    11:00 +10°C° 0 mm 5 mps 679 mmHg 40%
    12:00 +10°C° 0 mm 5 mps 679 mmHg 38%
    13:00 +12°C° 0 mm 5 mps 679 mmHg 37%
    14:00 +13°C° 0 mm 5 mps 678 mmHg 35%
    15:00 +13°C° 0 mm 5 mps 679 mmHg 36%
    16:00 +13°C° 0 mm 4 mps 679 mmHg 36%
    17:00 +12°C° 0 mm 4 mps 679 mmHg 37%
    18:00 +12°C° 0 mm 4 mps 679 mmHg 41%
    19:00 +11°C° 0 mm 3 mps 680 mmHg 46%
    20:00 +10°C° 0 mm 3 mps 680 mmHg 50%
    21:00 +10°C° 0 mm 3 mps 680 mmHg 54%
    22:00 +9°C° 0 mm 2 mps 680 mmHg 58%
    23:00 +9°C° 0 mm 2 mps 680 mmHg 62%

    27 March, Wednesday

    Time Temperature Precipitation Wind Pressure Humidity
    00:00 +9°C° 0 mm 2 mps 680 mmHg 61%
    01:00 +8°C° 0 mm 2 mps 680 mmHg 61%
    02:00 +8°C° 0 mm 3 mps 680 mmHg 61%
    03:00 +8°C° 0 mm 3 mps 680 mmHg 60%
    04:00 +8°C° 0 mm 2 mps 680 mmHg 59%
    05:00 +7°C° 0 mm 2 mps 680 mmHg 58%
    06:00 +8°C° 0 mm 3 mps 681 mmHg 53%
    07:00 +9°C° 0 mm 3 mps 682 mmHg 49%
    08:00 +10°C° 0 mm 3 mps 682 mmHg 44%
    09:00 +11°C° 0 mm 4 mps 683 mmHg 40%
    10:00 +12°C° 0 mm 4 mps 683 mmHg 37%
    11:00 +13°C° 0 mm 5 mps 683 mmHg 33%
    12:00 +14°C° 0 mm 5 mps 683 mmHg 32%
    13:00 +14°C° 0 mm 6 mps 683 mmHg 32%
    14:00 +15°C° 0 mm 6 mps 682 mmHg 31%
    15:00 +14°C° 0 mm 6 mps 682 mmHg 35%
    16:00 +14°C° 0 mm 6 mps 683 mmHg 39%
    17:00 +13°C° 0 mm 6 mps 683 mmHg 42%
    18:00 +13°C° 0 mm 5 mps 683 mmHg 49%
    19:00 +12°C° 0 mm 4 mps 683 mmHg 55%
    20:00 +11°C° 0 mm 4 mps 683 mmHg 61%
    21:00 +11°C° 0 mm 3 mps 683 mmHg 62%
    22:00 +10°C° 0 mm 3 mps 683 mmHg 62%
    23:00 +10°C° 0 mm 3 mps 683 mmHg 63%

    28 March, Thursday

    Time Temperature Precipitation Wind Pressure Humidity
    00:00 +9°C° 0 mm 2 mps 683 mmHg 64%
    01:00 +9°C° 0 mm 2 mps 683 mmHg 64%
    02:00 +8°C° 0 mm 2 mps 682 mmHg 64%
    03:00 +8°C° 0 mm 2 mps 682 mmHg 66%
    04:00 +8°C° 0 mm 2 mps 682 mmHg 67%
    05:00 +8°C° 0 mm 1 mps 682 mmHg 69%
    06:00 +8°C° 0 mm 2 mps 683 mmHg 64%
    07:00 +9°C° 0 mm 2 mps 684 mmHg 58%
    08:00 +10°C° 0 mm 2 mps 684 mmHg 53%
    09:00 +13°C° 0 mm 2 mps 684 mmHg 46%
    10:00 +14°C° 0 mm 2 mps 684 mmHg 39%
    11:00 +15°C° 0 mm 2 mps 684 mmHg 32%
    12:00 +16°C° 0 mm 3 mps 684 mmHg 29%
    13:00 +17°C° 0 mm 3 mps 683 mmHg 26%
    14:00 +18°C° 0 mm 4 mps 683 mmHg 23%
    15:00 +17°C° 0 mm 4 mps 683 mmHg 22%
    16:00 +17°C° 0 mm 3 mps 682 mmHg 22%
    17:00 +17°C° 0 mm 3 mps 682 mmHg 21%
    18:00 +16°C° 0 mm 2 mps 682 mmHg 24%
    19:00 +15°C° 0 mm 2 mps 682 mmHg 26%
    20:00 +14°C° 0 mm 1 mps 682 mmHg 28%
    21:00 +14°C° 0 mm 1 mps 681 mmHg 30%
    22:00 +13°C° 0 mm 1 mps 681 mmHg 31%
    23:00 +12°C° 0 mm 0 mps 680 mmHg 32%

    29 March, Friday

    Time Temperature Precipitation Wind Pressure Humidity
    00:00 +11°C° 0 mm 0 mps 680 mmHg 33%
    01:00 +11°C° 0 mm 0 mps 680 mmHg 33%
    02:00 +11°C° 0 mm 0 mps 680 mmHg 33%
    03:00 +12°C° 0 mm 1 mps 680 mmHg 33%
    04:00 +12°C° 0 mm 1 mps 679 mmHg 33%
    05:00 +13°C° 0 mm 1 mps 679 mmHg 33%
    06:00 +14°C° 0 mm 1 mps 680 mmHg 30%
    07:00 +15°C° 0 mm 2 mps 680 mmHg 27%
    08:00 +16°C° 0 mm 2 mps 680 mmHg 24%
    09:00 +17°C° 0 mm 2 mps 680 mmHg 22%
    10:00 +19°C° 0 mm 2 mps 679 mmHg 19%
    11:00 +20°C° 0 mm 3 mps 679 mmHg 17%
    12:00 +21°C° 0 mm 5 mps 679 mmHg 17%
    13:00 +21°C° 0 mm 7 mps 678 mmHg 18%
    14:00 +21°C° 0 mm 10 mps 678 mmHg 19%
    15:00 +21°C° 0.1 mm 8 mps 678 mmHg 24%
    16:00 +20°C° 0.1 mm 7 mps 677 mmHg 30%
    17:00 +20°C° 0.1 mm 5 mps 677 mmHg 35%
    18:00 +19°C° 0 mm 5 mps 677 mmHg 36%
    19:00 +17°C° 0 mm 5 mps 677 mmHg 37%
    20:00 +16°C° 0 mm 5 mps 677 mmHg 38%
    21:00 +15°C° 0 mm 4 mps 677 mmHg 47%
    22:00 +14°C° 0 mm 4 mps 676 mmHg 57%
    23:00 +12°C° 0 mm 4 mps 676 mmHg 66%
    Show more